User: anonymous   Login
Location: Clyde
(45.1830°S, 169.3170°E)
Time: 05:09:09
(UTC+13:00)
Language:

COSMOS 2428 - Orbit

View from above orbital plane
View from above orbital plane
View from above satellite
View from above satellite

Ground track
Ground track

The orbit data is extracted from the following two-line orbital elements,

1 31792U 07029A   19318.48417259 -.00000207  00000-0 -86301-4 0  9995
2 31792  70.9330   6.3238 0008953  17.3146 342.8278 14.12419587638378
Epoch (UTC): 14 November 2019 11:37:12
Eccentricity: 0.0008953
inclination: 70.9330°
perigee height: 844 km
apogee height: 857 km
right ascension of ascending node: 6.3238°
argument of perigee: 17.3146°
revolutions per day: 14.12419587
mean anomaly at epoch: 342.8278°
orbit number at epoch: 63837

The dashed part of the orbit path shows where the satellite is in the earth's shadow,  

DLR